Location: Rostock
(54.0884°N, 12.1234°E)
Time: 18:23:29
(UTC+01:00)

ISS - Pass Details

Date: 11 January 2018
Orbit: 402 x 407 km, 51.6° (Epoch: 19 January)

Event Time Altitude Azimuth Distance (km) Brightness Sun altitude
Exits shadow 07:13:59 - 254° (WSW) 1,554 -1.3 -9.9°
Reaches altitude 10° 07:14:21 10° 249° (WSW) 1,467 -1.4 -9.9°
Maximum altitude 07:16:07 14° 216° (SW) 1,257 -1.5 -9.6°
Drops below altitude 10° 07:17:52 10° 184° (S) 1,464 -0.7 -9.4°
Sets 07:20:42 0° 157° (SSE) 2,321 0.8 -9.0°
